JOPM7: Shoal Creek, Joplin, MO

Data processed at Fri Mar 09 2018 23:37


All information presented herein is the property of the government of the United States of America and may be revised or deleted at any time without prior notice.
Dissemination of this information without the expressed written consent of the Public Affairs Office, Tulsa District U.S. Army Corps of Engineers is strictly prohibited.
These data are gathered electronically and, as presented, have not undergone any form of quality control. These data are not guaranteed to be valid or correct.
Go to home page.
Go to station list.

Downstream station:


Previous Day
Next Day
Current Day
    
SHEF ID:       JOPM7     Shoal Creek above Joplin, MO
STATION TYPE:  

               PRECIP PRECIP(A)     STAGE  RIV-FLOW   VOLTAGE
                   in        in        ft       cfs      volt
              Ccp-Rev   Ccp-Rev   Ccp-Rev   Ccp-Rev   Ccp-Rev
(US/Central)
03/07 00:00      0.00      ----      3.53       804     12.94
03/07 01:00      0.00      ----      3.52       799     12.92
03/07 02:00      0.00      ----      3.53       804     12.89
03/07 03:00      0.00      ----      3.53       804     12.87
03/07 04:00      0.00      ----      3.51       794     12.85
03/07 05:00      0.00      ----      3.51       794     12.85
03/07 06:00      0.00      ----      3.51       794     12.84
03/07 07:00      0.00      ----      3.50       789     12.93
03/07 08:00      0.00      ----      3.50       789     13.45
03/07 09:00      0.00      ----      3.49       784     14.23
03/07 10:00      0.00      ----      3.48       779     14.23
03/07 11:00      0.00      ----      3.49       784     14.46
03/07 12:00      0.00      ----      3.47       774     14.07
03/07 13:00      0.00      ----      3.48       779     14.15
03/07 14:00      0.00      ----      3.46       769     14.30
03/07 15:00      0.00      ----      3.46       769     14.33
03/07 16:00      0.00      ----      3.46       769     14.10
03/07 17:00      0.00      ----      3.45       764     14.00
03/07 18:00      0.00      ----      3.45       764     13.40
03/07 19:00      0.00      ----      3.44       759     13.14
03/07 20:00      0.00      ----      3.45       764     13.06
03/07 21:00      0.00      ----      3.43       754     13.02
03/07 22:00      0.00      ----      3.43       754     12.99
03/07 23:00      0.00      ----      3.43       754     12.95